Regional Weather Roundup
Issued by NWS

Home | Current Version | Previous Version | Text Only | Print | Product List | Glossary Off
Versions: 1 2 3 4 5 6 7 8 9 10 11 12 13 14 15 16 17 18 19 20 21 22 23 24 25 26 27 28 29 30 31 32 33 34 35 36 37 38 39 40 41 42 43 44 45 46 47 48 49 50

000
ASUS43 KMKX 231900
RWRWI

WISCONSIN REGIONAL WEATHER ROUNDUP
NATIONAL WEATHER SERVICE MILWAUKEE/SULLIVAN WI
200 PM CDT WED APR 23 2014

NOTE: "FAIR" INDICATES FEW OR NO CLOUDS BELOW 12,000 FEET WITH NO
SIGNIFICANT WEATHER AND/OR OBSTRUCTIONS TO VISIBILITY.

WIZ001-002-006>008-014>016-023>028-232000-
NORTHWEST WISCONSIN

CITY           SKY/WX    TMP DP  RH WIND       PRES   REMARKS
SUPERIOR ARPT  CLOUDY    46  29  53 E8        30.10F
ASHLAND        PTSUNNY   50  31  48 N13       30.11F
HAYWARD        CLOUDY    53  23  31 S12       30.08F
SIREN          CLOUDY    50  26  38 SE12      30.07F
RICE LAKE      CLOUDY    49  24  37 SE15      30.10F
LADYSMITH      CLOUDY    51  27  40 S7        30.12F
EAU CLAIRE     NOT AVBL
MENOMONIE      CLOUDY    51  25  35 E10       30.08F
NEW RICHMOND   CLOUDY    49  28  43 SE9       30.07F
OSCEOLA        CLOUDY    49  28  44 SE13G18   30.09F
$$

WIZ003>005-009-010-017-018-232000-
NORTH CENTRAL WISCONSIN

CITY           SKY/WX    TMP DP  RH WIND       PRES   REMARKS
WOODRUFF       CLOUDY    56  22  27 SW5       30.11F
RHINELANDER    PTSUNNY   50  22  33 S8        30.12F
EAGLE RIVER    CLOUDY    51  17  26 E5        30.11F
LAND O LAKES   CLOUDY    51  15  24 S6        30.12F
PHILLIPS       CLOUDY    50  24  36 SE5       30.10F
TOMAHAWK       PTSUNNY   51  21  31 E3        30.12S
MEDFORD        CLOUDY    46  26  45 SE7       30.12F
MERRILL        PTSUNNY   50  25  37 SE6       30.12F
$$

WIZ029-030-035-036-043>047-232000-
CENTRAL WISCONSIN

CITY           SKY/WX    TMP DP  RH WIND       PRES   REMARKS
WAUSAU         CLOUDY    50  24  36 SE6       30.11F
MOSINEE        SUNNY     46  25  42 E7        30.14F
MARSHFIELD     CLOUDY    50  25  37 SE9       30.11F
STEVENS POINT  CLOUDY    48  24  38 SE9       30.14F
WAUPACA        CLOUDY    54  21  28 SE6       30.16F
WAUTOMA        NOT AVBL
WISC RAPIDS    CLOUDY    52  20  28 SE9       30.13F
CAMP DOUGLAS   NOT AVBL
$$

WIZ011>013-019>022-031-037>040-048>050-232000-
NORTHEAST WISCONSIN

CITY           SKY/WX    TMP DP  RH WIND       PRES   REMARKS
ANTIGO         PTSUNNY   49  24  36 S5        30.14F
STURGEON BAY   PTSUNNY   45  19  36 E6        30.19S
GREEN BAY      MOSUNNY   48  27  44 VRB3      30.18F
MANITOWOC      NOT AVBL
APPLETON       PTSUNNY   48  21  34 CALM      30.17F
CLINTONVILLE   PTSUNNY   48  23  37 SW3       30.16F
OSHKOSH        PTSUNNY   48  24  39 E8        30.16F
$$

WIZ032>034-041-042-053>061-232000-
SOUTHWEST WISCONSIN

CITY           SKY/WX    TMP DP  RH WIND       PRES   REMARKS
LA CROSSE      CLOUDY    52  29  41 S10       30.09F
SPARTA         CLOUDY    55  20  26 SE12      30.10F
VIROQUA        MOCLDY    49  24  37 SE10      30.10S
BOSCOBEL       CLOUDY    56  26  31 E10G16    30.11F
PRAIRIE DU CHI CLOUDY    50  28  43 E9        30.10F
PLATTEVILLE    FAIR      51  28  40 E9        30.11F
$$

WIZ056-057-062-063-064-067-068-232000-
SOUTH CENTRAL WISCONSIN

CITY           SKY/WX    TMP DP  RH WIND       PRES   REMARKS
BARABOO/DELLS  CLOUDY    53  24  32 S6        30.12F
LONE ROCK      NOT AVBL
WATERTOWN      PTSUNNY   52  29  41 SE7       30.14F
MADISON        CLOUDY    53  24  32 E8        30.13F
MIDDLETON      FAIR      55  22  28 E9        30.13F
MONROE         CLOUDY    53  25  33 SE6       30.12F
JANESVILLE     SUNNY     55  25  30 E7        30.13F
$$

WIZ051-052-058>065-066-070>072-232000-
SOUTHEAST WISCONSIN

CITY           SKY/WX    TMP DP  RH WIND       PRES   REMARKS
MILWAUKEE      PTSUNNY   44  25  47 NE7       30.19F
WAUKESHA       NOT AVBL
MILWAUKEE/TIMM SUNNY     45  19  36 E8        30.19F
RACINE         SUNNY     44  25  47 E6        30.20S
BURLINGTON     SUNNY     48  24  39 SE7       30.16F
KENOSHA        MOSUNNY   48  26  42 E9        30.18S
FOND DU LAC    PTSUNNY   50  28  42 NE9       30.15F
SHEBOYGAN      MOSUNNY   46  26  45 E6        30.18F
WEST BEND      PTSUNNY   50  23  34 E10       30.17S
JUNEAU         PTSUNNY   51  20  29 SE8       30.15F
$$

LSZ147-162-232000-
LAKE SUPERIOR

STATION/POSITION TIME  TEMP    WIND        PRES    WAVE
                       AIR SEA DIR/SP/G            HT/PER
                 (UTC) (F)     (DEG/KT/KT) (MB)    (FT/S)
DEVILS ISLAND    1800   38      90/  8/  9 1021.6F
PORT WING        1840   35      20/ 11/ 14 1019.3F
SAXON HARBOR     1800          340/  1/  3 1020.7F
$$

LMZ867-665-643>646-232000-
LAKE MICHIGAN

STATION/POSITION TIME  TEMP    WIND        PRES    WAVE
                       AIR SEA DIR/SP/G            HT/PER
                 (UTC) (F)     (DEG/KT/KT) (MB)    (FT/S)
NORTHPORT PIER   1800   37     130/  8/  8 1022.7S
SISTER BAY       1808             CALM       N/A
KEWAUNEE LAKESHO 1800   38      60/  5/  8 1023.0F
SHEBOYGAN LAKESH 1800   36      40/  6/  7 1023.4S
PORT WASHINGTON  1800   38      60/  6/  7 1023.4R
MILWAUKEE LAKESH 1800   36      60/  6/  7   N/A
KENOSHA   LAKESH 1800   37      40/  8/  9   N/A
$$

TC  - TEMPERATURE IN CELSIUS
VSB - VISIBILITY IN STATUTE MILES
WCI - WIND CHILL INDEX
HX  - HEAT INDEX




USA.gov is the U.S. government's official web portal to all federal, state and local government web resources and services.